{"data":{"norad_id":62778,"epoch":"2026-05-24T18:34:06.517920Z","epoch_age_seconds":104892,"freshness":"FRESH","line1":"1 62778U 25015W   26144.77368655  .00012877  00000+0  44607-3 0  9995","line2":"2 62778  53.1621 328.7852 0001048  93.8860 266.2261 15.30205111 76133","mean_motion":15.30205111,"eccentricity":0.0001048,"inclination_deg":53.1621,"raan_deg":328.7852,"arg_perigee_deg":93.886,"mean_anomaly_deg":266.2261,"bstar":0.00044607,"rev_number":7613,"period_min":94.105031387521,"perigee_km":474.48157923949,"apogee_km":475.91803863464,"semimajor_km":6853.3368089371,"source":"CELESTRAK","updated_at":"2026-05-25T13:38:19.747704Z"}}